Theta_e
322 323 324 324 324 325 327 326 326 327 328 333 331 329 328 332 344 345 345 352 350 350 348 349 349 351 351 351 352 352 353 352 352 351 350 349 348 349 348 347 348 348 347 347
322 324 324 324 324 325 325 324 325 325 326 328 329 328 328 327 337 342 342 343 349 349 342 345 347 350 351 351 351 351 352 352 351 350 349 350 348 348 347 348 349 347 347 348
324 325 325 325 324 324 323 323 323 324 326 327 328 328 327 327 329 331 338 341 343 347 344 345 347 350 350 350 351 351 351 352 351 350 350 349 348 348 348 348 348 348 348 347
323 323 326 324 322 322 323 323 324 327 325 326 326 327 326 328 330 336 340 339 342 344 344 345 347 348 348 350 350 351 351 351 351 351 351 350 347 346 347 347 347 346 348 348
323 323 324 324 325 322 324 324 326 326 324 324 326 326 326 329 332 331 331 335 337 344 343 345 346 348 348 349 350 350 350 350 350 351 351 351 349 347 346 345 346 347 347 348
321 321 324 323 325 325 323 324 322 323 321 325 323 327 332 331 332 331 335 338 332 343 344 343 345 347 349 349 350 350 350 350 350 351 352 351 350 349 347 346 344 346 347 347
321 323 322 324 326 323 322 320 324 326 327 327 323 332 331 335 335 341 346 346 340 341 343 343 345 347 348 350 350 350 350 350 350 351 351 351 350 349 349 348 348 346 345 345
321 324 326 324 325 325 325 322 323 331 328 327 325 331 335 340 344 345 346 348 345 344 345 348 347 348 350 350 351 350 350 350 351 351 351 351 350 349 350 349 348 347 347 346
322 327 327 330 327 324 326 325 322 322 322 326 328 331 336 345 346 348 349 348 346 348 347 345 336 336 337 350 351 353 350 350 350 351 351 350 350 351 351 349 348 348 346 344
325 329 328 329 326 325 326 324 325 322 332 333 331 332 332 347 347 346 348 348 350 351 349 347 345 342 346 349 351 351 354 351 351 351 351 349 351 352 350 349 349 348 347 344
324 326 328 327 326 326 323 323 321 321 324 331 333 332 335 347 347 345 346 347 347 348 342 340 342 341 345 346 348 352 353 354 353 352 352 353 352 351 351 351 351 348 348 345
326 322 328 330 326 323 322 324 320 322 324 325 327 331 340 344 342 340 343 346 347 347 342 342 342 341 338 339 346 347 354 354 354 354 354 354 354 352 352 352 349 347 346 346
326 324 326 327 324 323 323 324 321 316 318 324 325 326 335 333 335 336 335 345 347 344 341 341 336 336 337 337 337 336 340 355 355 355 354 354 354 354 353 351 349 346 344 345
327 320 324 327 326 323 327 326 323 320 321 322 322 324 335 333 334 333 333 341 344 343 341 337 335 335 338 337 337 340 343 342 350 356 356 355 354 355 353 352 350 347 344 343
320 324 324 323 323 324 325 326 326 326 323 324 324 323 334 337 333 331 338 340 341 342 341 338 334 333 335 339 339 344 351 347 339 353 356 356 355 354 353 352 351 349 347 344
316 324 326 328 326 324 326 324 325 326 333 323 336 342 335 339 338 337 338 337 337 336 336 337 339 339 341 338 338 345 342 349 344 346 355 356 355 354 353 352 352 350 350 347
320 318 318 322 323 325 324 324 327 332 332 333 340 334 336 335 335 333 332 332 333 333 333 332 331 331 330 331 335 337 337 344 349 352 356 356 355 354 352 352 352 351 351 350
315 315 316 319 320 325 321 328 329 330 329 329 330 330 331 332 331 329 329 328 328 328 326 326 327 327 327 326 331 333 333 340 344 344 350 355 355 354 353 351 351 352 352 351
312 315 318 320 320 321 328 328 328 329 330 327 327 327 326 326 328 329 325 324 326 325 323 323 324 324 323 323 323 324 326 335 343 346 345 350 353 354 352 352 351 351 351 351
318 314 318 321 326 328 328 327 325 325 331 325 325 325 325 324 327 326 324 324 324 323 323 323 323 322 323 324 323 324 326 331 340 340 346 347 347 353 353 352 352 352 351 351
320 320 325 325 327 330 325 324 323 329 327 325 326 326 326 325 323 321 321 320 321 322 322 323 323 323 323 324 324 325 326 326 328 341 342 341 344 344 353 353 352 352 351 351
321 322 324 322 326 329 324 324 327 322 322 324 323 323 324 322 322 321 320 319 319 319 321 322 323 323 322 323 323 323 324 325 328 334 343 335 337 340 340 350 353 352 350 351
323 322 324 324 324 322 323 324 322 320 322 321 322 320 320 321 321 321 321 320 319 320 320 321 322 322 323 323 323 323 325 328 330 334 343 336 334 339 339 341 350 351 349 351
321 321 322 320 322 324 322 322 322 322 321 320 320 320 320 322 322 322 322 320 319 320 320 320 321 321 322 323 323 325 327 327 324 334 341 338 337 338 341 346 347 350 350 349
320 322 322 320 320 321 321 321 320 320 319 320 320 320 321 322 322 322 322 322 322 322 322 321 321 321 321 323 323 326 325 324 323 325 331 337 338 338 340 344 346 348 334 332
320 321 321 322 319 321 320 319 319 319 320 320 321 321 321 321 321 321 321 321 322 322 322 320 320 321 322 322 323 323 323 323 323 323 327 335 338 338 339 343 335 343 342 340
Wind_Speed
4 5 5 11 6 6 6 4 8 4 3 4 7 7 11 11 15 12 11 15 16 19 17 26 27 29 27 29 32 35 33 32 30 28 24 22 22 24 22 22 21 21 19 20
7 6 11 5 6 6 8 6 6 6 4 5 3 9 10 6 9 18 18 15 20 15 8 16 24 28 30 32 33 33 33 32 31 30 29 25 24 24 23 22 22 22 20 22
5 11 7 5 14 4 4 6 3 5 5 4 5 9 5 5 6 7 10 18 15 17 15 14 18 27 27 26 31 34 34 34 31 30 27 20 21 21 21 22 22 23 24 23
5 6 3 4 7 5 2 2 3 4 3 3 3 5 7 7 8 5 2 9 13 14 12 13 15 22 27 27 26 29 34 33 31 30 29 28 24 21 29 27 26 23 25 24
8 7 5 5 5 6 7 2 3 3 2 3 4 3 8 5 7 6 4 7 7 13 15 16 18 25 25 25 29 32 33 32 32 33 33 29 25 27 23 27 27 26 26 25
9 4 5 8 4 3 3 4 6 5 3 3 5 4 6 5 5 5 7 7 8 12 16 11 16 20 20 22 23 30 34 35 34 34 33 32 30 26 26 22 27 29 28 25
6 5 5 4 2 4 7 7 4 5 5 5 3 1 2 10 7 6 6 8 6 6 7 10 11 11 4 12 23 28 34 35 36 36 36 34 33 29 27 25 24 25 29 30
1 7 5 1 4 4 3 5 5 3 2 5 3 4 3 5 3 6 8 7 10 14 16 14 10 12 12 13 18 19 20 31 35 36 36 35 33 31 30 28 25 25 26 28
4 4 5 3 3 5 1 3 3 5 2 2 3 1 2 5 10 11 12 15 12 14 17 16 10 6 9 13 20 19 25 25 31 36 36 34 34 32 32 30 27 24 23 22
5 1 2 6 6 6 7 2 4 4 0 3 5 5 4 3 6 6 8 10 14 14 12 10 6 7 9 14 19 23 22 29 31 31 34 33 34 31 29 25 26 21 21 20
4 4 5 2 5 1 5 4 4 4 3 4 2 6 5 5 1 3 3 5 9 11 13 9 6 14 22 17 9 12 23 26 30 32 32 32 31 29 27 24 23 21 21 21
1 5 1 1 2 3 5 3 4 5 6 2 4 6 4 6 5 4 3 3 4 6 6 7 9 16 20 15 2 6 9 23 29 33 33 34 30 29 27 25 21 20 20 19
3 3 3 8 6 6 6 4 2 3 3 4 3 5 3 4 7 6 3 5 4 5 5 6 4 7 11 14 7 1 9 9 24 29 30 33 32 30 30 28 23 23 23 22
7 3 6 6 6 3 2 3 2 3 2 3 5 6 7 4 3 3 0 4 6 5 5 3 4 4 11 20 22 23 19 17 17 24 27 31 34 34 33 31 27 26 26 25
4 3 2 4 3 3 5 3 1 3 5 5 7 4 5 6 5 5 7 5 8 6 4 3 2 3 10 14 15 18 20 20 25 21 29 35 37 34 33 32 29 26 27 28
3 1 2 2 3 0 2 3 4 1 2 6 4 3 6 6 10 12 8 6 5 6 5 3 3 4 8 11 10 11 17 16 13 22 27 34 24 35 32 32 30 28 26 27
3 5 3 5 2 3 3 1 4 4 3 4 2 1 4 8 8 5 6 5 6 5 4 2 3 4 6 6 9 12 16 14 11 15 27 28 30 29 30 31 29 31 29 27
6 6 3 3 3 1 4 4 10 11 4 6 5 5 4 3 3 3 3 1 1 3 4 4 2 5 11 14 11 14 16 15 15 16 19 23 32 32 30 31 33 35 33 30
2 5 3 4 4 3 4 2 1 2 1 2 2 5 5 7 4 5 2 2 4 4 6 6 6 12 17 19 19 18 16 13 13 15 18 19 24 31 30 32 34 35 34 34
7 5 4 3 3 6 1 5 3 3 1 1 2 4 5 5 4 5 6 5 6 6 7 11 11 3 10 17 17 18 19 17 15 12 14 16 14 23 30 35 32 33 33 37
4 4 2 1 2 1 4 7 6 3 3 4 3 4 5 4 5 7 10 7 10 11 14 12 14 16 19 18 19 19 18 16 19 16 11 15 14 16 23 32 35 31 32 28
2 1 1 1 1 4 4 3 3 3 2 3 4 6 8 9 12 12 11 10 10 13 19 20 15 15 21 22 20 20 22 23 23 19 16 16 17 16 17 19 31 31 27 32
2 4 3 5 4 4 2 2 4 4 3 5 5 9 10 13 13 14 13 13 12 17 18 23 21 19 19 21 21 19 22 21 24 20 20 18 19 18 19 17 21 23 25 24
3 2 2 3 3 4 6 5 4 4 6 9 9 11 14 16 16 17 15 12 10 16 18 22 24 19 21 23 23 21 18 17 23 20 22 22 20 20 17 16 20 20 17 16
3 2 0 3 5 7 4 7 7 9 9 12 13 13 14 15 15 16 15 16 18 21 21 21 21 20 23 28 27 23 24 26 22 23 21 22 21 19 14 9 15 20 19 8
3 5 3 5 7 6 8 7 7 9 13 14 12 13 15 15 17 17 17 21 22 22 23 18 23 24 27 28 31 31 30 28 22 23 23 22 20 17 10 4 12 7 19 20
Wind_Direction
10 45 269 252 195 207 267 229 246 260 227 214 242 263 267 191 215 210 198 203 203 210 210 212 201 196 196 196 200 205 204 210 211 208 205 211 216 213 214 219 222 216 225 222
7 279 260 261 183 209 227 266 285 301 324 173 223 271 269 178 215 209 201 200 209 205 182 192 188 185 188 193 195 198 204 211 213 212 207 211 211 208 216 217 212 216 223 219
167 249 349 331 302 296 218 216 238 224 327 337 333 307 316 265 244 226 206 201 201 192 180 181 178 185 185 190 191 197 206 211 210 211 211 213 211 215 215 213 213 217 221 218
237 291 254 320 263 145 268 191 237 279 57 284 58 282 315 317 316 21 211 177 192 188 181 174 176 181 183 189 190 194 206 211 211 211 211 214 210 210 221 218 218 220 214 214
251 290 324 311 247 196 227 20 11 353 71 5 341 73 270 336 353 341 297 242 205 189 174 177 182 181 183 183 186 193 204 210 212 212 213 217 220 225 230 227 226 223 219 216
250 261 219 215 257 235 38 55 39 44 51 29 259 140 287 333 316 1 18 334 222 188 187 173 162 163 171 182 185 193 204 210 211 213 215 218 226 229 228 227 226 225 222 220
316 276 274 187 283 358 69 51 354 3 5 233 342 59 282 328 355 113 59 348 19 151 99 79 86 96 89 183 182 191 201 207 214 212 218 221 225 229 230 228 229 225 227 225
114 335 347 291 182 182 35 128 148 223 245 268 314 358 317 323 31 62 56 49 46 85 109 113 103 135 155 190 195 204 205 205 213 217 218 224 226 233 235 236 237 237 235 229
144 277 314 354 85 105 26 3 196 109 56 6 295 206 335 356 31 40 49 59 56 114 130 127 114 153 277 228 199 205 211 214 220 220 220 225 228 232 234 237 243 243 240 236
189 339 287 312 44 16 97 182 24 9 286 279 293 286 228 324 38 25 40 64 88 105 112 116 129 97 141 193 200 208 216 219 223 226 223 227 229 231 231 237 245 235 235 238
125 107 277 44 34 29 17 16 39 114 125 165 279 267 200 195 226 80 87 76 105 131 142 147 143 146 183 205 215 212 206 217 221 227 228 223 226 228 231 233 244 237 231 237
53 124 77 149 305 355 88 93 106 109 295 185 158 273 254 197 210 244 104 43 67 104 123 162 189 203 223 217 237 341 257 223 226 228 226 228 226 228 232 229 235 225 236 231
174 30 34 346 358 8 55 0 103 108 85 239 128 268 235 273 285 61 159 120 87 96 109 188 223 267 353 346 240 26 279 259 237 229 226 230 227 227 232 232 227 223 221 226
78 108 155 187 200 157 73 351 81 109 116 272 230 286 275 308 30 115 306 121 123 114 107 79 349 317 308 324 321 328 314 256 275 235 224 233 233 233 231 234 231 223 219 223
86 123 191 233 232 192 185 183 260 210 222 188 257 266 335 331 329 188 147 109 104 103 105 123 189 256 291 306 321 345 349 259 246 260 233 235 235 240 229 231 234 228 226 228
4 159 178 268 228 328 222 306 254 35 345 260 78 68 353 360 59 51 36 34 58 89 97 126 209 250 271 286 338 10 20 4 267 256 251 242 227 237 231 228 228 231 226 228
144 141 105 247 318 332 339 247 102 108 4 247 145 340 346 40 53 44 46 26 4 13 53 45 332 293 289 323 7 17 14 5 354 311 269 256 247 237 231 231 225 231 228 224
148 124 122 210 43 233 270 83 112 110 40 9 46 25 36 108 218 240 286 336 4 310 347 331 272 354 358 2 350 7 359 351 344 338 331 265 249 244 238 227 223 221 229 227
137 125 123 151 184 270 155 297 66 157 205 334 39 354 345 336 293 242 17 307 273 280 271 271 330 341 341 344 344 345 343 332 328 335 345 339 257 245 235 229 221 221 218 226
76 72 116 126 167 214 313 317 329 141 253 281 355 360 340 1 344 264 298 322 308 307 331 337 339 324 348 343 337 328 329 327 310 317 324 340 344 264 243 237 231 227 225 222
0 360 85 77 235 11 323 298 305 179 239 341 352 303 305 278 224 277 309 296 271 279 291 300 310 319 322 331 333 324 319 311 314 294 305 318 329 331 269 245 242 233 220 219
122 84 305 47 263 256 344 318 5 192 271 262 261 260 265 265 272 276 274 272 276 279 287 286 275 284 296 305 311 314 313 314 323 301 287 306 311 322 324 277 243 241 218 214
358 176 206 170 225 217 281 168 187 171 234 265 258 281 266 268 271 275 273 271 267 269 279 283 267 275 283 293 298 295 300 312 314 301 280 293 305 312 323 312 267 237 224 215
321 80 118 53 241 240 260 247 241 229 259 278 268 272 280 280 283 280 279 275 267 272 274 272 263 263 269 279 283 283 292 304 313 307 287 296 302 312 333 332 304 239 226 246
206 59 88 279 282 306 295 218 251 267 255 262 261 261 268 274 273 274 277 278 278 276 273 269 258 262 268 280 280 273 283 297 302 303 295 288 291 304 323 326 305 242 228 262
191 183 156 228 234 210 258 256 257 264 272 270 260 269 265 265 271 275 276 269 266 269 270 264 262 263 271 274 274 274 277 283 286 290 291 283 284 292 304 258 79 190 232 217